COSMOS 1275 DEB, 12652

Orbit data source: Space-Track

COSMOS 1275 DEB, 12652 is space debris in LEO originally from a launch on Thu, 04 Jun 1981 UTC launched from the Plesetsk Missile And Space Complex (PKMTR). Debris objects in space refer to the collection of defunct objects orbiting the Earth. Examples of debris include non-operational satellites, rocket bodies, and fragments generated from explosions, collisions, or faulty payload assembly.

Loading next visibility...
Identifier
12652, 1981-053G
Orbit
LEO
Country
Flag of CISCIS
Related business
Manufacturer
Unknown
Mission
Spacecraft
Bus & Motor
Unknown
Mass
Unknown
Launch date (UTC)
1981-06-04 (45 years ago)
Launch vehicle
Unknown
Launch site
Plesetsk Missile And Space Complex (PKMTR)
Object type
Payload
Rocket body
Debris
Shape & HBR
Unknown shape, 0.1 m
Radar Cross Section
Small (<0.1 m²)

Expand to show TLE details & history
Last TLE update: 13 hours ago

TLE from 13 hours ago
0 COSMOS 1275 DEB
1 12652U 81053G   26145.40723235  .00001255  00000-0  79028-3 0  9999
2 12652  82.9385  14.2459 0053133  42.6103 139.3441 14.02877223192686
Epoch: 2026-05-25T09:46Z
TLE epoch observation values (Epoch: 2026-05-25T09:46:24.875Z)
Latitude
-2.46209°
Longitude
164.95037°
Altitude
916.505 km
Speed
7.379 km/s
True Right ascension
12h 58m 11s
True Declination
-2° 26' 52"
Sunlit
Object was in full shadow at epoch
Visualization orbit readout
Latitude
Unknown
Longitude
Unknown
Altitude
Unknown
Speed
Unknown
Apparent Right ascension
Unknown
Apparent Declination
Unknown
Sunlit
N/A
Visualization observer readout
Local Sidereal Time
08:14:11
Azimuth
Unknown
Elevation
Unknown
Doppler factor
Unknown
Orbital elements
Apogee altitude
919.529 km
Perigee altitude
842.389 km
Semi-major axis
7,259.096 km
Eccentricity
0.00531
Inclination
82.9385°
RAAN
14.2459°
Arg. of periapsis
42.6103°
True anomaly
139.73879°
Mean anomaly
139.3441°
Eccentric anomaly
139.54164°
Mean motion
3.50929 °/min
Orbital period
102.58 mins
BSTAR
0.00079028
Loading maneuver chart data...
Computing Atmospheric mass density...
Loading historical data...
Loading historical data...
Loading historical data...
Loading historical data...
Loading historical data...
Loading historical data...
Loading historical data...

Documentation

Showing up to 5 results
|